www.pogodaiklimat.ru

Погода и климат >> Архив погоды >> Франция >> Париж


АРХИВ ПОГОДЫ в Париже

Время (UTC), дата Ветер
(напр.,м/с)
 
Видим.   Явления Облачность Т
(С)
Тd
(С)
f
(%)
Тe
(С)
Тes
(С)
Комфортность P
(гПа)
Po
(гПа)
Тmin
(С)
Tmax
(С)
R
(мм)
R24
(мм)
S
(см)
22 14.09 СВ 1 20 км н/о +19.0 +11.6 62 +21 +21 комфорт 1027.0 1017.7
23 14.09 СВ 1 20 км н/о +18.2 +11.3 64 +20 +20 1026.7 1017.4
00 15.09 С 1
{3}
20 км н/о +17.2 +11.0 67 +18 +18 1026.4 1017.1 0
01 15.09 С 1 20 км н/о +16.5 +11.0 70 +17 +17 1026.0 1016.7
02 15.09 С 1 20 км н/о +16.0 +10.7 71 +17 +17 1025.9 1016.5
03 15.09 С 1
{5}
20 км н/о +15.6 +10.6 72 +16 +16 1025.6 1016.2 0
04 15.09 С 1 20 км н/о +15.1 +10.5 74 +16 +16 1025.2 1015.8
05 15.09 С 1 20 км н/о +15.0 +10.8 76 +16 +16 1025.4 1016.0
06 15.09 С 1
{3}
20 км н/о +15.1 +11.1 77 +16 +16 1025.7 1016.3 +14.6 +22.9 0
07 15.09 С 1 20 км н/о +16.5 +10.8 69 +18 +18 1025.4 1016.1
08 15.09 С 1 20 км н/о +18.3 +10.9 62 +20 +20 1025.7 1016.4
09 15.09 СВ 1
{5}
20 км н/о +22.0 +11.1 50 +24 +24 комфорт 1025.7 1016.5 0
10 15.09 СВ 1 20 км н/о +23.1 +11.8 49 +26 +26 жарко 1025.4 1016.3
11 15.09 СВ 1 20 км н/о +24.1 +10.4 42 +25 +25 комфорт 1025.0 1015.9
12 15.09 С 2
{6}
20 км н/о +25.2 +10.6 40 +26 +26 жарко 1024.4 1015.3 0
13 15.09 СВ 1 20 км н/о +26.4 +12.1 41 +28 +28 жарко 1023.7 1014.7
14 15.09 В 1 20 км н/о +26.8 +11.3 38 +28 +28 жарко 1023.1 1014.1
15 15.09 С 1
{6}
20 км н/о +26.2 +9.1 34 +27 +27 жарко 1022.3 1013.3 0
16 15.09 СВ 1 19 км н/о +27.1 +10.7 36 +28 +28 жарко 1021.9 1012.9
17 15.09 СВ 1 20 км н/о +26.1 +10.3 37 +27 +27 жарко 1021.7 1012.7
18 15.09 СВ 1
{5}
20 км н/о +23.1 +10.2 44 +25 +25 комфорт 1022.0 1012.9 +15.0 +27.7 0
19 15.09 СВ 1 20 км н/о +22.0 +10.2 47 +24 +24 комфорт 1022.2 1013.1
20 15.09 СВ 1 20 км н/о +21.3 +10.5 50 +23 +23 комфорт 1022.4 1013.2
21 15.09 С 2
{6}
20 км н/о +20.3 +11.0 55 +23 +23 комфорт 1022.8 1013.6 0
22 15.09 СВ 2 20 км н/о +19.7 +12.5 63 +22 +22 комфорт 1023.0 1013.8
23 15.09 С 1 20 км н/о +18.3 +12.3 68 +20 +20 1022.9 1013.7
00 16.09 СВ 1
{6}
20 км н/о +17.5 +12.0 70 +19 +19 1022.8 1013.5 0
01 16.09 С 2 20 км н/о +16.7 +11.6 72 +17 +17 1022.5 1013.2
02 16.09 С 1 20 км н/о +16.1 +11.5 74 +17 +17 1022.4 1013.1
03 16.09 З 1
{3}
20 км н/о +16.0 +12.4 79 +17 +17 1021.9 1012.6 0
04 16.09 З 1 20 км н/о +16.0 +12.2 78 +17 +17 1021.4 1012.1
05 16.09 СЗ 1 20 км н/о +16.1 +11.9 76 +17 +17 1021.5 1012.2
06 16.09 СЗ 1
{5}
20 км н/о +15.7 +12.1 79 +16 +16 1021.8 1012.5 +15.7 +23.1 0
07 16.09 С 2 20 км н/о +16.1 +11.7 75 +16 +16 1022.0 1012.7
08 16.09 С 1 20 км н/о +17.4 +11.0 66 +18 +18 1022.3 1013.0
09 16.09 С 1
{4}
20 км н/о +19.2 +10.5 57 +21 +21 комфорт 1022.3 1013.1 0
10 16.09 СЗ 1 20 км н/о +21.1 +8.7 45 +22 +22 комфорт 1022.2 1013.0
11 16.09 З 1 20 км н/о +23.3 +8.9 40 +25 +25 комфорт 1021.7 1012.6
12 16.09 СЗ 1
{7}
20 км н/о +25.2 +2.6 23 +24 +24 комфорт 1021.3 1012.3 0
13 16.09 С 1 20 км н/о +25.2 +8.6 35 +26 +26 жарко 1020.8 1011.8
14 16.09 З 1 20 км н/о +25.9 +11.3 40 +27 +27 жарко 1020.1 1011.1
15 16.09 С 2
{6}
20 км н/о +25.7 +12.2 43 +27 +27 жарко 1019.8 1010.8 0
16 16.09 С 2 20 км н/о +25.9 +13.7 47 +28 +28 жарко 1019.4 1010.4
17 16.09 С 2 20 км н/о +24.8 +14.0 51 +27 +27 жарко 1019.3 1010.3
18 16.09 С 2
{9}
20 км н/о +23.5 +15.3 60 +26 +26 жарко 1019.7 1010.7 +15.7 +25.9 0
19 16.09 С 2 20 км н/о +21.9 +15.3 66 +25 +25 комфорт 1020.4 1011.3
20 16.09 СВ 2 20 км н/о +20.4 +14.3 68 +23 +23 комфорт 1021.0 1011.8
21 16.09 С 2
{8}
20 км н/о +19.5 +14.5 73 +22 +22 комфорт 1021.2 1012.0 0
22 16.09 С 2 20 км н/о +18.4 +14.7 79 +19 +19 1021.5 1012.3
23 16.09 С 2 20 км н/о +18.2 +14.7 80 +19 +19 1021.5 1012.3
00 17.09 С 2
{7}
17 км н/о +18.0 +15.1 83 +19 +19 1021.4 1012.2 0
01 17.09 С 2 18 км н/о +17.7 +14.8 83 +18 +18 1021.3 1012.1
02 17.09 С 1 17 км н/о +16.9 +14.5 86 +18 +18 1021.3 1012.0
03 17.09 СВ 2
{5}
16 км н/о +17.0 +14.8 87 +18 +18 1021.1 1011.8 0
04 17.09 С 2 10 км н/о +17.2 +14.8 86 +18 +18 1021.2 1011.9
05 17.09 СВ 2 9000 м н/о +17.2 +15.0 87 +18 +18 1021.4 1012.1
06 17.09 СВ 2
{6}
14 км н/о +17.2 +14.8 86 +18 +18 1021.7 1012.4 +16.9 +23.5 0
07 17.09 СВ 2 13 км н/о +17.5 +14.8 84 +18 +18 1022.1 1012.8
08 17.09 СВ 2 12 км н/о +18.0 +14.9 82 +19 +19 1022.4 1013.2
09 17.09 СВ 2
{6}
14 км н/о +18.3 +14.4 78 +19 +19 1022.7 1013.5 0
10 17.09 С 2 14 км н/о +19.0 +14.3 74 +21 +21 комфорт 1022.9 1013.7
11 17.09 СВ 2 20 км н/о +20.1 +12.6 62 +23 +23 комфорт 1022.7 1013.5
12 17.09 СВ 1
{8}
20 км н/о +21.5 +12.9 58 +24 +24 комфорт 1022.2 1013.1 0
13 17.09 СВ 3 20 км н/о +21.6 +11.3 52 +24 +24 комфорт 1022.0 1012.9
14 17.09 СВ 2 20 км н/о +22.7 +11.4 49 +25 +25 комфорт 1021.7 1012.6
15 17.09 СВ 2
{9}
20 км н/о +21.4 +10.5 50 +23 +23 комфорт 1021.5 1012.4 0
16 17.09 СВ 2 20 км н/о +21.7 +9.9 47 +23 +23 комфорт 1021.5 1012.4
17 17.09 СВ 2 20 км н/о +20.2 +9.1 49 +22 +22 комфорт 1021.6 1012.4
18 17.09 СВ 3
{10}
20 км н/о +19.2 +9.1 52 +20 +20 1021.8 1012.6 +17.2 +22.7 0
19 17.09 СВ 2 20 км н/о +18.2 +9.0 55 +19 +19 1022.4 1013.1
20 17.09 СВ 3 20 км н/о +17.5 +8.6 56 +18 +18 1023.1 1013.8
21 17.09 СВ 3
{12}
20 км н/о +16.0 +8.7 62 +16 +16 1023.6 1014.3 0
22 17.09 СВ 2 20 км н/о +15.2 +8.0 62 +15 +15 1024.1 1014.7
23 17.09 СВ 3 20 км н/о +14.1 +7.6 65 +13 +13 1024.4 1015.0
00 18.09 СВ 3
{13}
20 км н/о +13.4 +7.4 67 +13 +13 1024.7 1015.3 0
01 18.09 СВ 3 20 км н/о +12.9 +6.5 65 +12 +12 1024.8 1015.3
02 18.09 СВ 2 20 км н/о +12.1 +6.2 67 +11 +11 1025.1 1015.6
03 18.09 СВ 2
{10}
20 км н/о +11.7 +6.0 68 +11 +11 1025.3 1015.8 0
04 18.09 СВ 2 20 км н/о +11.2 +5.5 68 +10 +10 1025.0 1015.5
05 18.09 СВ 2 20 км н/о +11.0 +5.3 68 +10 +10 1025.3 1015.8
06 18.09 В 3
{10}
20 км н/о +11.1 +5.4 68 +10 +10 1025.6 1016.1 +10.9 +19.1 0
07 18.09 СВ 2 20 км н/о +11.5 +5.6 67 +10 +10 1026.3 1016.8
08 18.09 В 3 20 км н/о +12.5 +5.2 61 +11 +11 1026.6 1017.1
09 18.09 В 3
{12}
20 км н/о +15.3 +6.3 55 +15 +15 1026.7 1017.3 0
10 18.09 СВ 3 20 км н/о +16.3 +5.0 47 +16 +16 1026.6 1017.2
11 18.09 СВ 3 20 км н/о +17.2 +5.5 46 +17 +17 1026.2 1016.9
12 18.09 СВ 2
{14}
20 км н/о +18.6 +5.4 42 +19 +19 1025.9 1016.6 0
13 18.09 СВ 3 20 км н/о +19.4 +6.8 44 +20 +20 1025.7 1016.4
14 18.09 СВ 3 20 км н/о +19.7 +5.3 39 +21 +21 комфорт 1025.2 1016.0
15 18.09 СВ 3
{13}
20 км н/о +18.9 +5.0 40 +20 +20 1025.1 1015.8 0
16 18.09 СВ 3 20 км н/о +19.1 +5.2 40 +20 +20 1025.0 1015.7
17 18.09 СВ 2 20 км н/о +17.8 +4.7 42 +18 +18 1025.0 1015.7
18 18.09 СВ 2
{12}
20 км н/о +16.9 +4.9 45 +17 +17 1025.4 1016.1 +11.0 +20.1 0
19 18.09 СВ 3 20 км н/о +16.2 +4.6 46 +16 +16 1026.0 1016.6
20 18.09 СВ 3 20 км н/о +15.7 +4.7 48 +15 +15 1026.3 1016.9
21 18.09 СВ 3
{10}
20 км н/о +15.3 +4.9 50 +15 +15 1027.0 1017.6 0
22 18.09 СВ 2 20 км н/о +14.4 +5.5 55 +14 +14 1027.3 1017.9
23 18.09 СВ 2 20 км н/о +13.7 +6.1 60 +14 +14 1027.7 1018.2
00 19.09 СВ 2
{11}
20 км н/о +13.2 +6.5 64 +13 +13 1027.8 1018.3 0
01 19.09 СВ 2 20 км н/о +12.5 +6.5 67 +12 +12 1027.7 1018.2
02 19.09 СВ 2 20 км н/о +12.1 +6.6 69 +12 +12 1027.5 1018.0
03 19.09 СВ 2
{11}
20 км н/о +11.6 +6.7 72 +11 +11 1027.5 1018.0 0
04 19.09 СВ 2 19 км н/о +11.1 +6.6 74 +10 +10 1027.7 1018.2
05 19.09 СВ 2 17 км н/о +10.7 +7.2 79 +10 +10 1028.0 1018.4
06 19.09 СВ 2
{7}
20 км н/о +10.5 +6.4 76 +10 +10 1028.3 1018.7 +10.3 +16.9 0
07 19.09 СВ 2 20 км н/о +11.2 +6.9 75 +10 +10 1028.7 1019.2
08 19.09 СВ 2 20 км н/о +12.5 +6.7 68 +12 +12 1029.1 1019.6
09 19.09 СВ 3
{11}
20 км н/о +15.5 +6.8 56 +15 +15 1029.1 1019.7 0
10 19.09 СВ 3 20 км н/о +16.5 +6.9 53 +16 +16 1029.2 1019.8
11 19.09 СВ 3 20 км н/о +17.5 +7.2 51 +18 +18 1028.7 1019.4
12 19.09 СВ 3
{12}
20 км н/о +18.4 +5.2 42 +19 +19 1028.4 1019.1 0
13 19.09 В 3 20 км н/о +19.3 +6.1 42 +20 +20 1027.8 1018.5
14 19.09 СВ 2 20 км н/о +19.6 +5.3 39 +21 +21 комфорт 1027.1 1017.8
15 19.09 СВ 3
{11}
20 км н/о +19.2 +4.1 37 +20 +20 1026.7 1017.4 0
16 19.09 СВ 3 20 км н/о +19.4 +3.5 35 +20 +20 1026.6 1017.3
17 19.09 СВ 3 20 км н/о +18.3 +3.7 38 +19 +19 1026.7 1017.4
18 19.09 СВ 3
{13}
20 км н/о +17.4 +3.6 40 +18 +18 1026.8 1017.5 +10.5 +20.0 0
19 19.09 СВ 2 20 км н/о +16.3 +4.0 44 +16 +16 1027.3 1017.9
20 19.09 СВ 2 20 км н/о +15.6 +5.2 50 +16 +16 1027.4 1018.0
21 19.09 СВ 2
{11}
20 км н/о +14.8 +5.0 52 +15 +15 1027.9 1018.5 0
22 19.09 В 2 20 км н/о +14.3 +4.6 52 +14 +14 1027.7 1018.3
23 19.09 В 2 20 км н/о +13.7 +4.3 53 +13 +13 1027.5 1018.0
00 20.09 В 2
{9}
20 км н/о +12.9 +4.1 55 +13 +13 1027.4 1017.9 0
01 20.09 В 2 20 км н/о +12.5 +4.0 56 +12 +12 1027.0 1017.5
02 20.09 В 2 20 км н/о +12.1 +4.1 58 +12 +12 1026.7 1017.2
03 20.09 В 2
{12}
20 км н/о +11.7 +3.7 58 +11 +11 1026.3 1016.8 0
04 20.09 В 2 20 км н/о +11.3 +3.3 58 +11 +11 1025.8 1016.3
05 20.09 В 2 20 км н/о +11.7 +2.7 54 +11 +11 1025.5 1016.0
06 20.09 В 3
{11}
20 км н/о +11.2 +2.7 56 +10 +10 1025.4 1015.9 +11.1 +17.4 0
07 20.09 В 2 20 км н/о +11.9 +2.9 54 +12 +12 1025.6 1016.1
08 20.09 В 2 20 км н/о +13.1 +3.5 52 +13 +13 1025.6 1016.1
09 20.09 В 2
{10}
20 км н/о +16.6 +3.6 42 +17 +17 1025.0 1015.7 0
10 20.09 В 2 20 км н/о +17.2 +3.8 41 +18 +18 1024.3 1015.0
11 20.09 В 2 20 км н/о +19.6 +1.1 29 +20 +20 1023.2 1014.0
12 20.09 ЮВ 3
{10}
20 км н/о +21.2 -0.8 23 +21 +21 комфорт 1022.6 1013.4 0
13 20.09 ЮВ 2 20 км н/о +22.4 -1.0 21 +21 +21 комфорт 1021.7 1012.6
14 20.09 В 3 20 км н/о +23.2 +0.9 23 +22 +22 комфорт 1020.8 1011.7
15 20.09 В 2
{11}
18 км н/о +23.0 +1.3 24 +22 +22 комфорт 1020.1 1011.0 0
16 20.09 ЮВ 2 20 км н/о +23.2 -2.5 18 +22 +22 комфорт 1019.5 1010.4
17 20.09 В 3 20 км н/о +22.0 -1.4 21 +21 +21 комфорт 1019.2 1010.1
18 20.09 В 2
{9}
20 км н/о +20.5 -0.8 24 +21 +21 комфорт 1019.2 1010.0 +11.2 +23.7 0
19 20.09 В 2 20 км н/о +19.0 +0.5 29 +20 +20 1019.2 1010.0
20 20.09 В 2 20 км н/о +18.7 -0.2 28 +19 +19 1018.9 1009.7
21 20.09 В 2
{9}
20 км н/о +17.5 -0.3 30 +18 +18 1018.5 1009.2 0
22 20.09 ЮВ 2 20 км н/о +16.7 +0.7 34 +17 +17 1018.1 1008.8
23 20.09 ЮВ 2 20 км н/о +16.1 +1.4 37 +17 +17 1017.8 1008.5
00 21.09 В 1
{7}
20 км н/о +14.7 +1.6 41 +15 +15 1017.4 1008.1 0
01 21.09 В 1 20 км н/о +13.6 +1.9 45 +15 +15 1017.1 1007.7
02 21.09 В 2 20 км н/о +13.6 +2.5 47 +14 +14 1016.6 1007.2
03 21.09 ЮВ 2
{6}
20 км н/о +13.5 +3.0 49 +13 +13 1016.2 1006.8 0
04 21.09 ЮВ 2 20 км н/о +12.9 +3.0 51 +13 +13 1015.8 1006.4
05 21.09 ЮВ 1 20 км н/о +12.3 +3.5 55 +13 +13 1015.6 1006.2
06 21.09 ЮВ 1
{5}
20 км н/о +11.9 +3.6 57 +12 +12 1015.5 1006.1 +11.5 +20.5 0
07 21.09 ЮВ 1 20 км н/о +13.3 +4.7 56 +14 +14 1015.5 1006.1
08 21.09 ЮВ 1 20 км н/о +15.2 +6.5 56 +16 +16 1015.3 1006.0
09 21.09 ЮВ 1
{5}
20 км н/о +19.5 +8.5 49 +21 +21 комфорт 1014.8 1005.7 0
10 21.09 ЮВ 1 20 км н/о +21.0 +10.2 50 +24 +24 комфорт 1014.3 1005.2
11 21.09 ЮВ 1 20 км н/о +23.1 +11.8 49 +26 +26 жарко 1013.3 1004.3
12 21.09 ЮВ 2
{8}
20 км н/о +25.3 +11.5 42 +27 +27 жарко 1012.6 1003.7 0
13 21.09 ЮВ 2 20 км н/о +26.8 +13.2 43 +29 +29 жарко 1012.0 1003.1
14 21.09 Ю 2 20 км н/о +27.2 +14.2 45 +29 +29 жарко 1011.2 1002.3
15 21.09 ЮВ 2
{10}
19 км н/о +26.9 +13.3 43 +29 +29 жарко 1010.3 1001.4 0
16 21.09 ЮВ 2 20 км н/о +27.4 +13.3 42 +29 +29 жарко 1009.3 1000.5
17 21.09 Ю 1 20 км н/о +26.1 +13.2 45 +28 +28 жарко 1009.2 1000.3
18 21.09 ЮВ 1
{6}
20 км н/о +24.0 +12.6 49 +26 +26 жарко 1009.1 1000.2 +12.0 +27.7 0
19 21.09 ЮВ 1 18 км н/о +22.8 +12.7 53 +26 +26 жарко 1009.1 1000.1
20 21.09 ЮВ 1 11 км н/о +21.9 +12.7 56 +24 +24 комфорт 1008.7 999.7
21 21.09 ЮВ 2
{6}
20 км н/о +21.6 +12.2 55 +24 +24 комфорт 1008.5 999.5 0

 

Местоположение метеостанции Париж (Франция): широта 48.82 долгота 2.33 высота над уровнем моря 77 м.

В архиве по умолчанию представлена погода в Париже за последнюю неделю. Архивные данные за месяц целиком и за предыдущие месяцы, начиная с января 2011 года, Вы можете получить, выбрав интересующий диапазон дат из раскрывающегося списка и нажав кнопку "Ввод!".


*Определитесь, кто Вы:
робот инопланетянин человек

Внимание! Время в таблицах - всемирное. Для получения местного времени необходимо прибавить поправку, которая равна 1 ч.

Смотрите также архив погоды в соседних городах и на ближайших метеорологических станциях:

Погода в Велизи-Вилакубле (Франция) (11 км)
Погода в Париж Орли аэропорту (Франция) (12 км)
Погода в Ле-Бурже (Франция) (18 км)
Погода в Трапе (Франция) (25 км)
Погода в Аэропорту Шарль де Голль (Франция) (27 км)
Погода в Мелене (Франция) (34 км)
Погода в Кормее (Франция) (36 км)
Погода в Крее (Франция) (50 км)
Погода в Шартре (Франция) (72 км)
Погода в Бове (Франция) (74 км)

Пояснения к столбцам:

Ветер - указаны скорость ветра в м/с - средняя за 10 мин, порывы в срок и между сроками (в фигурных скобках) и направление, откуда дует ветер: С - северный, СВ - северо-восточный, В - восточный, ЮВ - юго-восточный, Ю - южный, ЮЗ - юго-западный, З - западный, СЗ - северо-западный.
Видимость - горизонтальная дальность видимости в метрах или километрах. При видимости от 1 до 10 км при отсутствии осадков обычно наблюдается дымка, при ухудшении видимости до 1 км и менее - туман. В сухую погоду видимость может ухудшаться дымом, пылью или мглою.
Явления - указаны атмосферные явления, наблюдавшиеся в срок или в последний час перед сроком; фигурными скобками обозначены явления, наблюдавшиеся между сроками (за 1-3 часа до срока); квадратными скобками обозначены град или гололедные отложения с указанием их диаметра в мм.
Облачность - указаны через наклонную черту общая и нижняя облачность в баллах и высота нижней границы облаков в метрах; квадратными скобками обозначены формы облаков: Ci - перистые, Cs - перисто-слоистые, Cc - перисто-кучевые, Ac - высококучевые, As - высокослоистые, Sc - слоисто-кучевые, Ns - слоисто-дождевые, Cu - кучевые, Cb - кучево-дождевые. Подробнее классификацию облаков см. в Атласе облаков (PDF).
T - Температура воздуха - температура, измеренная на высоте 2 м над землей.
Td - Температура точки росы - температура, при понижении до которой содержащийся в воздухе водяной пар достигнет насыщения.
f - Относительная влажность воздуха - влажноcть воздуха, измеренная на высоте 2 м над землей.
Te - Эффективная температура - температура, которую ощущает одетый по сезону человек в тени. Характеристика душности погоды. При расчете учитывается влияние влажности воздуха и скорости ветра на теплоощущения человека.
Tes - Эффективная температура на солнце - температура, которую ощущает человек, с поправкой на солнечный нагрев. Характеристика знойности погоды. Зависит от высоты солнца над горизонтом, облачности и скорости ветра. Ночью, в пасмурную погоду, а также при ветре 12 м/с и более поправка равна нулю.
P - Атмосферное давление - приведенное к уровню моря атмосферное давление.
Po - Атмосферное давление - измеренное на уровне метеостанции атмосферное давление.
Tmin - Минимальная температура - минимум температуры воздуха на высоте 2 м над землей.
Tmax - Максимальная температура - максимум температуры воздуха на высоте 2 м над землей.
R - Количество осадков - Количество выпавших осадков за период времени, мм. При наведении курсора мыши на число - период времени, за который выпало указанное количество осадков.
R24 - Количество осадков - Количество выпавших осадков за 24 часа, мм.
S - Снежный покров - Высота снежного покрова, см. При наведении курсора мыши на число - состояние снежного покрова и степень покрытия местности в баллах.